Zurück zum Katalog

NOAA 12 DEB

AktivSSO
NORAD 37831·DEBRIS·🇺🇸 United States

Gestartet May 14, 1991 von Vandenberg Space Force Base

Loading…

Nächste Überflüge (nächste 24 Stunden)

TLE

AktuellSource: Space-Track

Epoche: Sep 14, 2026, 03:44 UTC

1 37831U 91032D   26257.15581464  .00015505  00000-0  15878-2 0  9990
2 37831  98.1214 321.2169 0001574  82.5848 305.7411 14.90587378788854

Verfolge NOAA 12 DEB in Echtzeit mit AllMySat

Download on the App Store